• In Hungary
  • List of Countries
  • For 7 days
  • Water Temperature
  • Satellite Maps
  • Weather Map
  • News
  • Weather Widgets
  • user-avatar
    Login

    Hourly Weather Zhdimir

    Today, 25 June, Monday

    Time Temperature Precipitation Wind Pressure Humidity
    00:00 +10°C° 0 mm 2 mps 743 mmHg 94%
    01:00 +10°C° 0 mm 2 mps 743 mmHg 94%
    02:00 +10°C° 0 mm 1 mps 744 mmHg 94%
    03:00 +11°C° 0 mm 1 mps 744 mmHg 92%
    04:00 +11°C° 0 mm 1 mps 744 mmHg 91%
    05:00 +12°C° 0 mm 1 mps 744 mmHg 90%
    06:00 +14°C° 0 mm 1 mps 745 mmHg 83%
    07:00 +15°C° 0 mm 1 mps 745 mmHg 76%
    08:00 +17°C° 0 mm 2 mps 745 mmHg 69%
    09:00 +18°C° 0 mm 2 mps 745 mmHg 66%
    10:00 +19°C° 0 mm 2 mps 745 mmHg 63%
    11:00 +19°C° 0 mm 2 mps 745 mmHg 60%
    12:00 +20°C° 0 mm 2 mps 746 mmHg 59%
    13:00 +20°C° 0 mm 2 mps 746 mmHg 58%
    14:00 +21°C° 0 mm 2 mps 746 mmHg 57%
    15:00 +21°C° 0 mm 2 mps 746 mmHg 58%
    16:00 +22°C° 0 mm 1 mps 746 mmHg 59%
    17:00 +22°C° 0 mm 1 mps 746 mmHg 61%
    18:00 +20°C° 0 mm 1 mps 746 mmHg 67%
    19:00 +18°C° 0 mm 1 mps 746 mmHg 73%
    20:00 +15°C° 0 mm 1 mps 746 mmHg 79%
    21:00 +15°C° 0 mm 1 mps 747 mmHg 82%
    22:00 +14°C° 0 mm 1 mps 747 mmHg 85%
    23:00 +13°C° 0 mm 1 mps 747 mmHg 88%

    Tomorrow, 26 June, Tuesday

    Time Temperature Precipitation Wind Pressure Humidity
    00:00 +13°C° 0 mm 1 mps 747 mmHg 88%
    01:00 +11°C° 0 mm 0 mps 747 mmHg 89%
    02:00 +11°C° 0 mm 0 mps 748 mmHg 89%
    03:00 +12°C° 0 mm 0 mps 748 mmHg 88%
    04:00 +12°C° 0 mm 0 mps 748 mmHg 87%
    05:00 +14°C° 0 mm 1 mps 748 mmHg 86%
    06:00 +16°C° 0 mm 1 mps 748 mmHg 81%
    07:00 +19°C° 0 mm 1 mps 748 mmHg 75%
    08:00 +20°C° 0 mm 2 mps 748 mmHg 69%
    09:00 +21°C° 0 mm 2 mps 748 mmHg 65%
    10:00 +23°C° 0 mm 2 mps 748 mmHg 60%
    11:00 +22°C° 0 mm 3 mps 748 mmHg 56%
    12:00 +24°C° 0 mm 3 mps 748 mmHg 55%
    13:00 +24°C° 0 mm 3 mps 748 mmHg 55%
    14:00 +25°C° 0 mm 3 mps 748 mmHg 54%
    15:00 +25°C° 0 mm 3 mps 747 mmHg 58%
    16:00 +24°C° 0 mm 3 mps 747 mmHg 62%
    17:00 +24°C° 0 mm 3 mps 747 mmHg 66%
    18:00 +21°C° 0 mm 3 mps 747 mmHg 71%
    19:00 +20°C° 0 mm 2 mps 747 mmHg 77%
    20:00 +18°C° 0 mm 2 mps 747 mmHg 83%
    21:00 +17°C° 0 mm 2 mps 747 mmHg 85%
    22:00 +17°C° 0 mm 2 mps 747 mmHg 88%
    23:00 +16°C° 0 mm 3 mps 747 mmHg 91%

    Day after tomorrow, 27 June, Wednesday

    Time Temperature Precipitation Wind Pressure Humidity
    00:00 +16°C° 0 mm 3 mps 747 mmHg 91%
    01:00 +16°C° 0 mm 3 mps 747 mmHg 91%
    02:00 +14°C° 0 mm 3 mps 747 mmHg 91%
    03:00 +16°C° 0 mm 3 mps 747 mmHg 88%
    04:00 +16°C° 0 mm 3 mps 747 mmHg 86%
    05:00 +15°C° 0 mm 4 mps 748 mmHg 84%
    06:00 +18°C° 0 mm 4 mps 748 mmHg 80%
    07:00 +20°C° 0 mm 4 mps 748 mmHg 76%
    08:00 +22°C° 0 mm 5 mps 748 mmHg 72%
    09:00 +23°C° 0 mm 5 mps 748 mmHg 68%
    10:00 +25°C° 0 mm 5 mps 748 mmHg 64%
    11:00 +26°C° 0 mm 6 mps 748 mmHg 60%
    12:00 +27°C° 0 mm 6 mps 748 mmHg 60%
    13:00 +27°C° 0 mm 6 mps 748 mmHg 60%
    14:00 +27°C° 0 mm 6 mps 748 mmHg 60%
    15:00 +27°C° 0 mm 5 mps 748 mmHg 63%
    16:00 +26°C° 0 mm 5 mps 747 mmHg 66%
    17:00 +26°C° 0 mm 4 mps 747 mmHg 69%
    18:00 +23°C° 0 mm 4 mps 747 mmHg 75%
    19:00 +22°C° 0 mm 3 mps 747 mmHg 80%
    20:00 +20°C° 0 mm 3 mps 747 mmHg 86%
    21:00 +19°C° 0 mm 3 mps 748 mmHg 86%
    22:00 +19°C° 0 mm 3 mps 748 mmHg 87%
    23:00 +18°C° 0 mm 3 mps 748 mmHg 88%

    28 June, Thursday

    Time Temperature Precipitation Wind Pressure Humidity
    00:00 +18°C° 0 mm 3 mps 748 mmHg 85%
    01:00 +17°C° 0 mm 4 mps 748 mmHg 82%
    02:00 +17°C° 0 mm 4 mps 748 mmHg 79%
    03:00 +17°C° 0 mm 4 mps 748 mmHg 79%
    04:00 +17°C° 0 mm 4 mps 748 mmHg 80%
    05:00 +17°C° 0 mm 4 mps 748 mmHg 81%
    06:00 +19°C° 0 mm 4 mps 748 mmHg 76%
    07:00 +20°C° 0 mm 5 mps 748 mmHg 72%
    08:00 +22°C° 0 mm 5 mps 748 mmHg 68%
    09:00 +23°C° 0 mm 5 mps 748 mmHg 64%
    10:00 +25°C° 0 mm 5 mps 748 mmHg 60%
    11:00 +26°C° 0 mm 5 mps 748 mmHg 56%
    12:00 +27°C° 0 mm 5 mps 747 mmHg 56%
    13:00 +27°C° 0 mm 5 mps 747 mmHg 56%
    14:00 +27°C° 0 mm 5 mps 747 mmHg 56%
    15:00 +27°C° 0 mm 5 mps 747 mmHg 60%
    16:00 +27°C° 0 mm 4 mps 746 mmHg 63%
    17:00 +26°C° 0 mm 4 mps 746 mmHg 67%
    18:00 +25°C° 0 mm 4 mps 746 mmHg 72%
    19:00 +22°C° 0 mm 3 mps 746 mmHg 77%
    20:00 +20°C° 0 mm 3 mps 746 mmHg 83%
    21:00 +19°C° 0 mm 3 mps 745 mmHg 84%
    22:00 +18°C° 0 mm 3 mps 745 mmHg 85%
    23:00 +17°C° 0 mm 3 mps 745 mmHg 86%

    29 June, Friday

    Time Temperature Precipitation Wind Pressure Humidity
    00:00 +17°C° 0 mm 3 mps 745 mmHg 86%
    01:00 +17°C° 0 mm 3 mps 745 mmHg 86%
    02:00 +16°C° 0 mm 3 mps 744 mmHg 87%
    03:00 +16°C° 0 mm 3 mps 744 mmHg 86%
    04:00 +17°C° 0 mm 3 mps 744 mmHg 86%
    05:00 +17°C° 0 mm 2 mps 744 mmHg 85%
    06:00 +19°C° 0 mm 3 mps 744 mmHg 80%
    07:00 +21°C° 0 mm 3 mps 744 mmHg 75%
    08:00 +24°C° 0 mm 3 mps 743 mmHg 69%
    09:00 +25°C° 0 mm 4 mps 743 mmHg 65%
    10:00 +26°C° 0 mm 4 mps 743 mmHg 60%
    11:00 +27°C° 0 mm 4 mps 742 mmHg 56%
    12:00 +27°C° 0 mm 4 mps 742 mmHg 55%
    13:00 +27°C° 0 mm 4 mps 741 mmHg 55%
    14:00 +28°C° 0 mm 4 mps 741 mmHg 54%
    15:00 +28°C° 0 mm 4 mps 741 mmHg 57%
    16:00 +27°C° 0 mm 3 mps 740 mmHg 61%
    17:00 +27°C° 0 mm 3 mps 740 mmHg 64%
    18:00 +25°C° 0 mm 3 mps 739 mmHg 70%
    19:00 +24°C° 0 mm 2 mps 739 mmHg 76%
    20:00 +21°C° 0 mm 2 mps 739 mmHg 82%
    21:00 +20°C° 0.1 mm 2 mps 738 mmHg 85%
    22:00 +20°C° 0.1 mm 3 mps 738 mmHg 87%
    23:00 +19°C° 0.1 mm 3 mps 738 mmHg 90%

    30 June, Saturday

    Time Temperature Precipitation Wind Pressure Humidity
    00:00 +19°C° 0 mm 3 mps 737 mmHg 91%
    01:00 +19°C° 0 mm 3 mps 737 mmHg 91%
    02:00 +19°C° 0 mm 3 mps 736 mmHg 92%
    03:00 +19°C° 1 mm 3 mps 736 mmHg 93%
    04:00 +19°C° 1 mm 3 mps 735 mmHg 94%
    05:00 +19°C° 1 mm 4 mps 735 mmHg 95%
    06:00 +20°C° 0.4 mm 3 mps 734 mmHg 93%
    07:00 +21°C° 0.4 mm 3 mps 734 mmHg 91%
    08:00 +22°C° 0.4 mm 3 mps 733 mmHg 89%
    09:00 +24°C° 1.3 mm 3 mps 733 mmHg 85%
    10:00 +26°C° 1.3 mm 3 mps 732 mmHg 80%
    11:00 +27°C° 1.3 mm 3 mps 732 mmHg 76%
    12:00 +27°C° 2.6 mm 3 mps 732 mmHg 74%
    13:00 +27°C° 2.6 mm 3 mps 731 mmHg 71%
    14:00 +28°C° 2.6 mm 3 mps 731 mmHg 69%
    15:00 +25°C° 4.3 mm 4 mps 731 mmHg 77%
    16:00 +22°C° 4.3 mm 4 mps 731 mmHg 85%
    17:00 +19°C° 4.3 mm 5 mps 731 mmHg 93%
    18:00 +17°C° 0.9 mm 5 mps 731 mmHg 93%
    19:00 +16°C° 0.9 mm 5 mps 731 mmHg 93%
    20:00 +15°C° 0.9 mm 5 mps 731 mmHg 93%
    21:00 +14°C° 0.6 mm 4 mps 731 mmHg 93%
    22:00 +14°C° 0.6 mm 4 mps 732 mmHg 92%
    23:00 +13°C° 0.6 mm 4 mps 732 mmHg 92%
    Show more